Location: Go�ngahuizen
(53.0821°N, 5.8849°E)
Time: 18:15:27
(UTC+00:00)

Cosmos 540 Rocket - Pass Details

Date: 09 April 2020
Orbit: 741 x 753 km, 74.1° (Epoch: 22 May)

Event Time Altitude Azimuth Distance (km) Brightness Sun altitude
Rises 19:43:56 0° 336° (NNW) 3,217 7.7 -11.5°
Reaches altitude 10° 19:46:32 10° 346° (NNW) 2,288 6.6 -11.9°
Maximum altitude 19:51:13 33° 51° (NE) 1,250 4.4 -12.5°
Enters shadow 19:54:28 17° 105° (ESE) 1,823 4.9 -12.9°
